Location: Betpouey
(42.8833°N, 0.0333°E)
Time: 08:18:30
(UTC+00:00)

Cosmos 1943 - Pass Details

Date: 01 December 2020
Orbit: 832 x 851 km, 71.0° (Epoch: 17 January)

Event Time Altitude Azimuth Distance (km) Brightness Sun altitude
Rises 17:48:03 0° 190° (S) 3,375 6.7 -14.5°
Reaches altitude 10° 17:50:30 10° 186° (S) 2,448 5.9 -15.0°
Maximum altitude 17:55:59 56° 109° (ESE) 995 3.3 -15.9°
Enters shadow 18:00:04 18° 37° (NE) 1,946 4.6 -16.7°
